STARLINK-4679, 53782

Orbit data source: Space-Track

STARLINK-4679, 53782 is a payload satellite owned by SpaceX/Seattle (US) in LEO that was launched on Sun, 11 Sep 2022 UTC via an FALCON 9 launch vehicle from the Air Force Eastern Test Range (AFETR). Payload-class satellites include a variety of spacecraft equipped with specific instruments for various scientific and technological missions. These include communications satellites like Starlink; space stations such as the ISS; scientific satellites like the Hubble; Earth observation satellites from companies like Planet Labs, Umbra, and HawkEye 360; GPS; miniature CubeSats for education and research; and military/defense satellites.

Loading next visibility...
Identifier
53782, 2022-111K
Orbit
LEO
Country
Flag of USUS
Related business
Manufacturer
SpaceX/Seattle
Mission
Operational Commercial Communications
Bus & Motor
STARLINK, Unknown motor
Mass
305 kg wet, ~290 kg dry
Launch date (UTC)
2022-09-11 (3 years ago)
Launch vehicle
FALCON 9
Launch site
Air Force Eastern Test Range (AFETR)
Object type
Payload
Rocket body
Debris
Shape & HBR
Box + 1 Pan, 10.1 m
Radar Cross Section
13.562 m², Large (>1 m²)

Expand to show TLE details & history
Last TLE update: 15 hours ago

TLE from 15 hours ago
0 STARLINK-4679
1 53782U 22111K   25340.87785642  .00001733  00000-0  12696-3 0  9994
2 53782  53.2176 330.8446 0001343  87.6875 272.4271 15.08838099179688
Epoch: 2025-12-06T21:04Z
TLE epoch observation values (Epoch: 2025-12-06T21:04:06.794Z)
Latitude
-0.00003°
Longitude
-61.08301°
Altitude
540.607 km
Speed
7.593 km/s
True Right ascension
22h 03m 22s
True Declination
0° 00' 00"
Sunlit
Object was in daylight at epoch
Visualization orbit readout
Latitude
Unknown
Longitude
Unknown
Altitude
Unknown
Speed
Unknown
Apparent Right ascension
Unknown
Apparent Declination
Unknown
Sunlit
N/A
Visualization observer readout
Local Sidereal Time
10:19:38
Azimuth
Unknown
Elevation
Unknown
Doppler factor
Unknown
Orbital elements
Apogee altitude
540.923 km
Perigee altitude
539.065 km
Semi-major axis
6,918.131 km
Eccentricity
0.00013
Inclination
53.2176°
RAAN
330.8446°
Arg. of periapsis
87.6875°
True anomaly
272.41172°
Mean anomaly
272.4271°
Eccentric anomaly
272.41941°
Mean motion
3.7719 °/min
Orbital period
95.44 mins
BSTAR
0.00012696
Loading maneuver chart data...
Computing Atmospheric mass density...
Loading historical data...
Loading historical data...
Loading historical data...
Loading historical data...
Loading historical data...
Loading historical data...
Loading historical data...

Documentation

Showing up to 5 results
|